Year,Month,Day,Hour,Minute,Value (Times are PST for temperature in C)
2020,04,15,00,00,13.00
2020,04,15,00,01,13.00
2020,04,15,00,02,13.00
2020,04,15,00,03,13.00
2020,04,15,00,04,13.00
2020,04,15,00,05,13.00
2020,04,15,00,06,13.00
2020,04,15,00,07,12.90
2020,04,15,00,08,12.90
2020,04,15,00,09,12.90
2020,04,15,00,10,12.90
2020,04,15,00,11,12.90
2020,04,15,00,12,12.90
2020,04,15,00,13,12.90
2020,04,15,00,14,12.90
2020,04,15,00,15,12.90
2020,04,15,00,16,12.90
2020,04,15,00,17,12.90
2020,04,15,00,18,12.90
2020,04,15,00,19,12.90
2020,04,15,00,20,12.90
2020,04,15,00,21,12.90
2020,04,15,00,22,12.90
2020,04,15,00,23,12.80
2020,04,15,00,24,12.80
2020,04,15,00,25,12.80
2020,04,15,00,26,12.80
2020,04,15,00,27,12.80
2020,04,15,00,28,12.80
2020,04,15,00,29,12.80
2020,04,15,00,30,12.80
2020,04,15,00,31,12.80
2020,04,15,00,32,12.80
2020,04,15,00,33,12.80
2020,04,15,00,34,12.70
2020,04,15,00,35,12.70
2020,04,15,00,36,12.70
2020,04,15,00,37,12.70
2020,04,15,00,38,12.70
2020,04,15,00,39,12.70
2020,04,15,00,40,12.60
2020,04,15,00,41,12.60
2020,04,15,00,42,12.60
2020,04,15,00,43,12.50
2020,04,15,00,44,12.50
2020,04,15,00,45,12.50
2020,04,15,00,46,12.40
2020,04,15,00,47,12.40
2020,04,15,00,48,12.40
2020,04,15,00,49,12.40
2020,04,15,00,50,12.40
2020,04,15,00,51,12.30
2020,04,15,00,52,12.30
2020,04,15,00,53,12.30
2020,04,15,00,54,12.30
2020,04,15,00,55,12.30
2020,04,15,00,56,12.20
2020,04,15,00,57,12.20
2020,04,15,00,58,12.20
2020,04,15,00,59,12.20
2020,04,15,01,00,12.20
2020,04,15,01,01,12.20
2020,04,15,01,02,12.20
2020,04,15,01,03,12.10
2020,04,15,01,04,12.10
2020,04,15,01,05,12.10
2020,04,15,01,06,12.10
2020,04,15,01,07,12.10
2020,04,15,01,08,12.10
2020,04,15,01,09,12.00
2020,04,15,01,10,12.00
2020,04,15,01,11,12.00
2020,04,15,01,12,12.00
2020,04,15,01,13,12.00
2020,04,15,01,14,12.00
2020,04,15,01,15,12.00
2020,04,15,01,16,12.00
2020,04,15,01,17,12.00
2020,04,15,01,18,12.00
2020,04,15,01,19,12.00
2020,04,15,01,20,12.00
2020,04,15,01,21,12.00
2020,04,15,01,22,11.90
2020,04,15,01,23,11.90
2020,04,15,01,24,11.90
2020,04,15,01,25,11.90
2020,04,15,01,26,11.90
2020,04,15,01,27,11.90
2020,04,15,01,28,11.90
2020,04,15,01,29,11.90
2020,04,15,01,30,11.90
2020,04,15,01,31,11.90
2020,04,15,01,32,11.90
2020,04,15,01,33,11.90
2020,04,15,01,34,11.90
2020,04,15,01,35,11.90
2020,04,15,01,36,11.90
2020,04,15,01,37,11.90
2020,04,15,01,38,11.90
2020,04,15,01,39,11.90
2020,04,15,01,40,11.90
2020,04,15,01,41,11.90
2020,04,15,01,42,11.80
2020,04,15,01,43,11.80
2020,04,15,01,44,11.80
2020,04,15,01,45,11.80
2020,04,15,01,46,11.80
2020,04,15,01,47,11.80
2020,04,15,01,48,11.80
2020,04,15,01,49,11.80
2020,04,15,01,50,11.80
2020,04,15,01,51,11.80
2020,04,15,01,52,11.80
2020,04,15,01,53,11.80
2020,04,15,01,54,11.80
2020,04,15,01,55,11.70
2020,04,15,01,56,11.70
2020,04,15,01,57,11.70
2020,04,15,01,58,11.70
2020,04,15,01,59,11.70
2020,04,15,02,00,11.70
2020,04,15,02,01,11.70
2020,04,15,02,02,11.70
2020,04,15,02,03,11.70
2020,04,15,02,04,11.70
2020,04,15,02,05,11.60
2020,04,15,02,06,11.70
2020,04,15,02,07,11.70
2020,04,15,02,08,11.70
2020,04,15,02,09,11.70
2020,04,15,02,10,11.70
2020,04,15,02,11,11.60
2020,04,15,02,12,11.70
2020,04,15,02,13,11.60
2020,04,15,02,14,11.60
2020,04,15,02,15,11.60
2020,04,15,02,16,11.60
2020,04,15,02,17,11.60
2020,04,15,02,18,11.60
2020,04,15,02,19,11.60
2020,04,15,02,20,11.60
2020,04,15,02,21,11.60
2020,04,15,02,22,11.60
2020,04,15,02,23,11.60
2020,04,15,02,24,11.60
2020,04,15,02,25,11.60
2020,04,15,02,26,11.60
2020,04,15,02,27,11.60
2020,04,15,02,28,11.60
2020,04,15,02,29,11.50
2020,04,15,02,30,11.50
2020,04,15,02,31,11.50
2020,04,15,02,32,11.50
2020,04,15,02,33,11.50
2020,04,15,02,34,11.40
2020,04,15,02,35,11.40
2020,04,15,02,36,11.40
2020,04,15,02,37,11.40
2020,04,15,02,38,11.40
2020,04,15,02,39,11.40
2020,04,15,02,40,11.40
2020,04,15,02,41,11.30
2020,04,15,02,42,11.30
2020,04,15,02,43,11.30
2020,04,15,02,44,11.30
2020,04,15,02,45,11.30
2020,04,15,02,46,11.30
2020,04,15,02,47,11.30
2020,04,15,02,48,11.30
2020,04,15,02,49,11.30
2020,04,15,02,50,11.30
2020,04,15,02,51,11.30
2020,04,15,02,52,11.30
2020,04,15,02,53,11.20
2020,04,15,02,54,11.20
2020,04,15,02,55,11.20
2020,04,15,02,56,11.20
2020,04,15,02,57,11.20
2020,04,15,02,58,11.20
2020,04,15,02,59,11.10
2020,04,15,03,00,11.10
2020,04,15,03,01,11.10
2020,04,15,03,02,11.00
2020,04,15,03,03,11.00
2020,04,15,03,04,11.00
2020,04,15,03,05,11.00
2020,04,15,03,06,10.90
2020,04,15,03,07,10.90
2020,04,15,03,08,10.90
2020,04,15,03,09,10.90
2020,04,15,03,10,10.90
2020,04,15,03,11,10.90
2020,04,15,03,12,10.90
2020,04,15,03,13,10.80
2020,04,15,03,14,10.80
2020,04,15,03,15,10.80
2020,04,15,03,16,10.80
2020,04,15,03,17,10.80
2020,04,15,03,18,10.80
2020,04,15,03,19,10.80
2020,04,15,03,20,10.80
2020,04,15,03,21,10.80
2020,04,15,03,22,10.80
2020,04,15,03,23,10.80
2020,04,15,03,24,10.80
2020,04,15,03,25,10.80
2020,04,15,03,26,10.80
2020,04,15,03,27,10.80
2020,04,15,03,28,10.80
2020,04,15,03,29,10.80
2020,04,15,03,30,10.80
2020,04,15,03,31,10.70
2020,04,15,03,32,10.70
2020,04,15,03,33,10.70
2020,04,15,03,34,10.70
2020,04,15,03,35,10.70
2020,04,15,03,36,10.60
2020,04,15,03,37,10.60
2020,04,15,03,38,10.60
2020,04,15,03,39,10.60
2020,04,15,03,40,10.60
2020,04,15,03,41,10.60
2020,04,15,03,42,10.60
2020,04,15,03,43,10.60
2020,04,15,03,44,10.60
2020,04,15,03,45,10.50
2020,04,15,03,46,10.50
2020,04,15,03,47,10.50
2020,04,15,03,48,10.40
2020,04,15,03,49,10.40
2020,04,15,03,50,10.40
2020,04,15,03,51,10.40
2020,04,15,03,52,10.40
2020,04,15,03,53,10.40
2020,04,15,03,54,10.30
2020,04,15,03,55,10.30
2020,04,15,03,56,10.30
2020,04,15,03,57,10.30
2020,04,15,03,58,10.30
2020,04,15,03,59,10.30
2020,04,15,04,00,10.30
2020,04,15,04,01,10.30
2020,04,15,04,02,10.30
2020,04,15,04,03,10.20
2020,04,15,04,04,10.20
2020,04,15,04,05,10.20
2020,04,15,04,06,10.20
2020,04,15,04,07,10.20
2020,04,15,04,08,10.20
2020,04,15,04,09,10.20
2020,04,15,04,10,10.20
2020,04,15,04,11,10.20
2020,04,15,04,12,10.20
2020,04,15,04,13,10.20
2020,04,15,04,14,10.20
2020,04,15,04,15,10.20
2020,04,15,04,16,10.20
2020,04,15,04,17,10.20
2020,04,15,04,18,10.20
2020,04,15,04,19,10.20
2020,04,15,04,20,10.20
2020,04,15,04,21,10.20
2020,04,15,04,22,10.10
2020,04,15,04,23,10.10
2020,04,15,04,24,10.10
2020,04,15,04,25,10.10
2020,04,15,04,26,10.10
2020,04,15,04,27,10.10
2020,04,15,04,28,10.10
2020,04,15,04,29,10.10
2020,04,15,04,30,10.00
2020,04,15,04,31,10.00
2020,04,15,04,32,10.00
2020,04,15,04,33,9.90
2020,04,15,04,34,9.90
2020,04,15,04,35,9.90
2020,04,15,04,36,9.90
2020,04,15,04,37,9.90
2020,04,15,04,38,9.90
2020,04,15,04,39,9.80
2020,04,15,04,40,9.80
2020,04,15,04,41,9.80
2020,04,15,04,42,9.80
2020,04,15,04,43,9.80
2020,04,15,04,44,9.80
2020,04,15,04,45,9.80
2020,04,15,04,46,9.80
2020,04,15,04,47,9.80
2020,04,15,04,48,9.80
2020,04,15,04,49,9.80
2020,04,15,04,50,9.80
2020,04,15,04,51,9.80
2020,04,15,04,52,9.80
2020,04,15,04,53,9.80
2020,04,15,04,54,9.80
2020,04,15,04,55,9.80
2020,04,15,04,56,9.80
2020,04,15,04,57,9.80
2020,04,15,04,58,9.80
2020,04,15,04,59,9.70
2020,04,15,05,00,9.70
2020,04,15,05,01,9.70
2020,04,15,05,02,9.70
2020,04,15,05,03,9.70
2020,04,15,05,04,9.70
2020,04,15,05,05,9.70
2020,04,15,05,06,9.70
2020,04,15,05,07,9.70
2020,04,15,05,08,9.70
2020,04,15,05,09,9.70
2020,04,15,05,10,9.70
2020,04,15,05,11,9.70
2020,04,15,05,12,9.70
2020,04,15,05,13,9.70
2020,04,15,05,14,9.70
2020,04,15,05,15,9.70
2020,04,15,05,16,9.70
2020,04,15,05,17,9.70
2020,04,15,05,18,9.70
2020,04,15,05,19,9.70
2020,04,15,05,20,9.70
2020,04,15,05,21,9.70
2020,04,15,05,22,9.70
2020,04,15,05,23,9.70
2020,04,15,05,24,9.70
2020,04,15,05,25,9.70
2020,04,15,05,26,9.70
2020,04,15,05,27,9.70
2020,04,15,05,28,9.70
2020,04,15,05,29,9.70
2020,04,15,05,30,9.70
2020,04,15,05,31,9.70
2020,04,15,05,32,9.70
2020,04,15,05,33,9.70
2020,04,15,05,34,9.70
2020,04,15,05,35,9.70
2020,04,15,05,36,9.70
2020,04,15,05,37,9.70
2020,04,15,05,38,9.70
2020,04,15,05,39,9.70
2020,04,15,05,40,9.70
2020,04,15,05,41,9.70
2020,04,15,05,42,9.70
2020,04,15,05,43,9.60
2020,04,15,05,44,9.60
2020,04,15,05,45,9.60
2020,04,15,05,46,9.60
2020,04,15,05,47,9.60
2020,04,15,05,48,9.60
2020,04,15,05,49,9.60
2020,04,15,05,50,9.60
2020,04,15,05,51,9.50
2020,04,15,05,52,9.50
2020,04,15,05,53,9.50
2020,04,15,05,54,9.50
2020,04,15,05,55,9.40
2020,04,15,05,56,9.40
2020,04,15,05,57,9.40
2020,04,15,05,58,9.40
2020,04,15,05,59,9.40
2020,04,15,06,00,9.40
2020,04,15,06,01,9.40
2020,04,15,06,02,9.30
2020,04,15,06,03,9.40
2020,04,15,06,04,9.40
2020,04,15,06,05,9.40
2020,04,15,06,06,9.40
2020,04,15,06,07,9.40
2020,04,15,06,08,9.40
2020,04,15,06,09,9.40
2020,04,15,06,10,9.40
2020,04,15,06,11,9.30
2020,04,15,06,12,9.30
2020,04,15,06,13,9.30
2020,04,15,06,14,9.30
2020,04,15,06,15,9.30
2020,04,15,06,16,9.30
2020,04,15,06,17,9.30
2020,04,15,06,18,9.20
2020,04,15,06,19,9.20
2020,04,15,06,20,9.20
2020,04,15,06,21,9.20
2020,04,15,06,22,9.10
2020,04,15,06,23,9.10
2020,04,15,06,24,9.10
2020,04,15,06,25,9.10
2020,04,15,06,26,9.10
2020,04,15,06,27,9.10
2020,04,15,06,28,9.10
2020,04,15,06,29,9.10
2020,04,15,06,30,9.00
2020,04,15,06,31,9.00
2020,04,15,06,32,9.00
2020,04,15,06,33,8.90
2020,04,15,06,34,8.90
2020,04,15,06,35,8.90
2020,04,15,06,36,8.90
2020,04,15,06,37,8.90
2020,04,15,06,38,8.90
2020,04,15,06,39,8.90
2020,04,15,06,40,8.90
2020,04,15,06,41,8.90
2020,04,15,06,42,8.90
2020,04,15,06,43,8.90
2020,04,15,06,44,8.90
2020,04,15,06,45,8.90
2020,04,15,06,46,8.80
2020,04,15,06,47,8.80
2020,04,15,06,48,8.80
2020,04,15,06,49,8.80
2020,04,15,06,50,8.80
2020,04,15,06,51,8.80
2020,04,15,06,52,8.80
2020,04,15,06,53,8.80
2020,04,15,06,54,8.80
2020,04,15,06,55,8.80
2020,04,15,06,56,8.80
2020,04,15,06,57,8.80
2020,04,15,06,58,8.80
2020,04,15,06,59,8.80
2020,04,15,07,00,8.80
2020,04,15,07,01,8.80
2020,04,15,07,02,8.80
2020,04,15,07,03,8.80
2020,04,15,07,04,8.80
2020,04,15,07,05,8.80
2020,04,15,07,06,8.80
2020,04,15,07,07,8.80
2020,04,15,07,08,8.80
2020,04,15,07,09,8.80
2020,04,15,07,10,8.80
2020,04,15,07,11,8.90
2020,04,15,07,12,8.90
2020,04,15,07,13,8.90
2020,04,15,07,14,8.90
2020,04,15,07,15,8.90
2020,04,15,07,16,8.90
2020,04,15,07,17,9.00
2020,04,15,07,18,9.00
2020,04,15,07,19,9.00
2020,04,15,07,20,9.10
2020,04,15,07,21,9.10
2020,04,15,07,22,9.10
2020,04,15,07,23,9.20
2020,04,15,07,24,9.20
2020,04,15,07,25,9.20
2020,04,15,07,26,9.20
2020,04,15,07,27,9.30
2020,04,15,07,28,9.30
2020,04,15,07,29,9.40
2020,04,15,07,30,9.40
2020,04,15,07,31,9.50
2020,04,15,07,32,9.60
2020,04,15,07,33,9.60
2020,04,15,07,34,9.70
2020,04,15,07,35,9.70
2020,04,15,07,36,9.80
2020,04,15,07,37,9.80
2020,04,15,07,38,9.90
2020,04,15,07,39,10.00
2020,04,15,07,40,10.00
2020,04,15,07,41,10.10
2020,04,15,07,42,10.20
2020,04,15,07,43,10.20
2020,04,15,07,44,10.30
2020,04,15,07,45,10.40
2020,04,15,07,46,10.40
2020,04,15,07,47,10.50
2020,04,15,07,48,10.60
2020,04,15,07,49,10.70
2020,04,15,07,50,10.70
2020,04,15,07,51,10.80
2020,04,15,07,52,10.80
2020,04,15,07,53,10.90
2020,04,15,07,54,10.90
2020,04,15,07,55,11.00
2020,04,15,07,56,11.10
2020,04,15,07,57,11.10
2020,04,15,07,58,11.20
2020,04,15,07,59,11.20
2020,04,15,08,00,11.30
2020,04,15,08,01,11.30
2020,04,15,08,02,11.40
2020,04,15,08,03,11.40
2020,04,15,08,04,11.50
2020,04,15,08,05,11.50
2020,04,15,08,06,11.60
2020,04,15,08,07,11.60
2020,04,15,08,08,11.60
2020,04,15,08,09,11.70
2020,04,15,08,10,11.70
2020,04,15,08,11,11.70
2020,04,15,08,12,11.70
2020,04,15,08,13,11.70
2020,04,15,08,14,11.70
2020,04,15,08,15,11.70
2020,04,15,08,16,11.70
2020,04,15,08,17,11.70
2020,04,15,08,18,11.80
2020,04,15,08,19,11.80
2020,04,15,08,20,11.80
2020,04,15,08,21,11.70
2020,04,15,08,22,11.70
2020,04,15,08,23,11.70
2020,04,15,08,24,11.70
2020,04,15,08,25,11.80
2020,04,15,08,26,11.80
2020,04,15,08,27,11.80
2020,04,15,08,28,11.90
2020,04,15,08,29,11.90
2020,04,15,08,30,11.90
2020,04,15,08,31,11.90
2020,04,15,08,32,11.90
2020,04,15,08,33,11.90
2020,04,15,08,34,12.00
2020,04,15,08,35,12.00
2020,04,15,08,36,12.10
2020,04,15,08,37,12.20
2020,04,15,08,38,12.20
2020,04,15,08,39,12.20
2020,04,15,08,40,12.20
2020,04,15,08,41,12.20
2020,04,15,08,42,12.20
2020,04,15,08,43,12.20
2020,04,15,08,44,12.20
2020,04,15,08,45,12.20
2020,04,15,08,46,12.20
2020,04,15,08,47,12.20
2020,04,15,08,48,12.20
2020,04,15,08,49,12.20
2020,04,15,08,50,12.30
2020,04,15,08,51,12.30
2020,04,15,08,52,12.30
2020,04,15,08,53,12.30
2020,04,15,08,54,12.40
2020,04,15,08,55,12.50
2020,04,15,08,56,12.60
2020,04,15,08,57,12.60
2020,04,15,08,58,12.70
2020,04,15,08,59,12.70
2020,04,15,09,00,12.70
2020,04,15,09,01,12.70
2020,04,15,09,02,12.70
2020,04,15,09,03,12.60
2020,04,15,09,04,12.60
2020,04,15,09,05,12.60
2020,04,15,09,06,12.60
2020,04,15,09,07,12.60
2020,04,15,09,08,12.60
2020,04,15,09,09,12.70
2020,04,15,09,10,12.70
2020,04,15,09,11,12.80
2020,04,15,09,12,12.90
2020,04,15,09,13,12.90
2020,04,15,09,14,13.00
2020,04,15,09,15,13.00
2020,04,15,09,16,12.90
2020,04,15,09,17,12.90
2020,04,15,09,18,12.80
2020,04,15,09,19,12.80
2020,04,15,09,20,12.70
2020,04,15,09,21,12.70
2020,04,15,09,22,12.70
2020,04,15,09,23,12.70
2020,04,15,09,24,12.70
2020,04,15,09,25,12.80
2020,04,15,09,26,12.80
2020,04,15,09,27,12.90
2020,04,15,09,28,13.00
2020,04,15,09,29,13.10
2020,04,15,09,30,13.10
2020,04,15,09,31,13.10
2020,04,15,09,32,13.10
2020,04,15,09,33,13.00
2020,04,15,09,34,13.00
2020,04,15,09,35,12.90
2020,04,15,09,36,12.90
2020,04,15,09,37,12.80
2020,04,15,09,38,12.80
2020,04,15,09,39,12.70
2020,04,15,09,40,12.70
2020,04,15,09,41,12.70
2020,04,15,09,42,12.70
2020,04,15,09,43,12.60
2020,04,15,09,44,12.60
2020,04,15,09,45,12.60
2020,04,15,09,46,12.50
2020,04,15,09,47,12.50
2020,04,15,09,48,12.40
2020,04,15,09,49,12.40
2020,04,15,09,50,12.40
2020,04,15,09,51,12.40
2020,04,15,09,52,12.40
2020,04,15,09,53,12.40
2020,04,15,09,54,12.40
2020,04,15,09,55,12.50
2020,04,15,09,56,12.50
2020,04,15,09,57,12.50
2020,04,15,09,58,12.50
2020,04,15,09,59,12.50
2020,04,15,10,00,12.60
2020,04,15,10,01,12.60
2020,04,15,10,02,12.60
2020,04,15,10,03,12.60
2020,04,15,10,04,12.60
2020,04,15,10,05,12.70
2020,04,15,10,06,12.70
2020,04,15,10,07,12.70
2020,04,15,10,08,12.70
2020,04,15,10,09,12.80
2020,04,15,10,10,12.80
2020,04,15,10,11,12.80
2020,04,15,10,12,12.80
2020,04,15,10,13,12.80
2020,04,15,10,14,12.90
2020,04,15,10,15,12.90
2020,04,15,10,16,12.90
2020,04,15,10,17,13.00
2020,04,15,10,18,13.00
2020,04,15,10,19,13.10
2020,04,15,10,20,13.10
2020,04,15,10,21,13.20
2020,04,15,10,22,13.20
2020,04,15,10,23,13.20
2020,04,15,10,24,13.20
2020,04,15,10,25,13.20
2020,04,15,10,26,13.30
2020,04,15,10,27,13.30
2020,04,15,10,28,13.30
2020,04,15,10,29,13.30
2020,04,15,10,30,13.20
2020,04,15,10,31,13.20
2020,04,15,10,32,13.20
2020,04,15,10,33,13.20
2020,04,15,10,34,13.10
2020,04,15,10,35,13.10
2020,04,15,10,36,13.10
2020,04,15,10,37,13.20
2020,04,15,10,38,13.20
2020,04,15,10,39,13.20
2020,04,15,10,40,13.20
2020,04,15,10,41,13.20
2020,04,15,10,42,13.20
2020,04,15,10,43,13.30
2020,04,15,10,44,13.30
2020,04,15,10,45,13.30
2020,04,15,10,46,13.40
2020,04,15,10,47,13.40
2020,04,15,10,48,13.40
2020,04,15,10,49,13.50
2020,04,15,10,50,13.60
2020,04,15,10,51,13.70
2020,04,15,10,52,13.70
2020,04,15,10,53,13.70
2020,04,15,10,54,13.70
2020,04,15,10,55,13.70
2020,04,15,10,56,13.60
2020,04,15,10,57,13.60
2020,04,15,10,58,13.50
2020,04,15,10,59,13.50
2020,04,15,11,00,13.40
2020,04,15,11,01,13.50
2020,04,15,11,02,13.50
2020,04,15,11,03,13.40
2020,04,15,11,04,13.30
2020,04,15,11,05,13.30
2020,04,15,11,06,13.20
2020,04,15,11,07,13.20
2020,04,15,11,08,13.20
2020,04,15,11,09,13.20
2020,04,15,11,10,13.30
2020,04,15,11,11,13.30
2020,04,15,11,12,13.30
2020,04,15,11,13,13.30
2020,04,15,11,14,13.20
2020,04,15,11,15,13.10
2020,04,15,11,16,13.10
2020,04,15,11,17,13.00
2020,04,15,11,18,12.90
2020,04,15,11,19,12.90
2020,04,15,11,20,13.00
2020,04,15,11,21,13.00
2020,04,15,11,22,13.00
2020,04,15,11,23,13.00
2020,04,15,11,24,13.00
2020,04,15,11,25,13.00
2020,04,15,11,26,13.00
2020,04,15,11,27,13.00
2020,04,15,11,28,13.00
2020,04,15,11,29,13.00
2020,04,15,11,30,13.00
2020,04,15,11,31,13.00
2020,04,15,11,32,13.00
2020,04,15,11,33,13.00
2020,04,15,11,34,13.10
2020,04,15,11,35,13.10
2020,04,15,11,36,13.20
2020,04,15,11,37,13.30
2020,04,15,11,38,13.30
2020,04,15,11,39,13.40
2020,04,15,11,40,13.40
2020,04,15,11,41,13.40
2020,04,15,11,42,13.50
2020,04,15,11,43,13.50
2020,04,15,11,44,13.50
2020,04,15,11,45,13.50
2020,04,15,11,46,13.60
2020,04,15,11,47,13.60
2020,04,15,11,48,13.70
2020,04,15,11,49,13.70
2020,04,15,11,50,13.70
2020,04,15,11,51,13.70
2020,04,15,11,52,13.80
2020,04,15,11,53,13.80
2020,04,15,11,54,13.80
2020,04,15,11,55,13.80
2020,04,15,11,56,13.70
2020,04,15,11,57,13.70
2020,04,15,11,58,13.60
2020,04,15,11,59,13.60
2020,04,15,12,00,13.60
2020,04,15,12,01,13.60
2020,04,15,12,02,13.60
2020,04,15,12,03,13.60
2020,04,15,12,04,13.60
2020,04,15,12,05,13.60
2020,04,15,12,06,13.60
2020,04,15,12,07,13.60
2020,04,15,12,08,13.60
2020,04,15,12,09,13.60
2020,04,15,12,10,13.70
2020,04,15,12,11,13.70
2020,04,15,12,12,13.80
2020,04,15,12,13,13.90
2020,04,15,12,14,14.00
2020,04,15,12,15,14.00
2020,04,15,12,16,14.10
2020,04,15,12,17,14.20
2020,04,15,12,18,14.30
2020,04,15,12,19,14.30
2020,04,15,12,20,14.30
2020,04,15,12,21,14.30
2020,04,15,12,22,14.30
2020,04,15,12,23,14.40
2020,04,15,12,24,14.40
2020,04,15,12,25,14.40
2020,04,15,12,26,14.50
2020,04,15,12,27,14.50
2020,04,15,12,28,14.60
2020,04,15,12,29,14.60
2020,04,15,12,30,14.70
2020,04,15,12,31,14.70
2020,04,15,12,32,14.80
2020,04,15,12,33,14.90
2020,04,15,12,34,15.00
2020,04,15,12,35,15.00
2020,04,15,12,36,15.00
2020,04,15,12,37,15.20
2020,04,15,12,38,15.30
2020,04,15,12,39,15.40
2020,04,15,12,40,15.40
2020,04,15,12,41,15.50
2020,04,15,12,42,15.50
2020,04,15,12,43,15.50
2020,04,15,12,44,15.40
2020,04,15,12,45,15.50
2020,04,15,12,46,15.50
2020,04,15,12,47,15.50
2020,04,15,12,48,15.60
2020,04,15,12,49,15.60
2020,04,15,12,50,15.60
2020,04,15,12,51,15.70
2020,04,15,12,52,15.70
2020,04,15,12,53,15.70
2020,04,15,12,54,15.70
2020,04,15,12,55,15.70
2020,04,15,12,56,15.70
2020,04,15,12,57,15.70
2020,04,15,12,58,15.70
2020,04,15,12,59,15.70
2020,04,15,13,00,15.70
2020,04,15,13,01,15.70
2020,04,15,13,02,15.80
2020,04,15,13,03,15.80
2020,04,15,13,04,15.80
2020,04,15,13,05,15.80
2020,04,15,13,06,15.90
2020,04,15,13,07,15.90
2020,04,15,13,08,16.00
2020,04,15,13,09,16.00
2020,04,15,13,10,16.00
2020,04,15,13,11,16.00
2020,04,15,13,12,16.10
2020,04,15,13,13,16.10
2020,04,15,13,14,16.20
2020,04,15,13,15,16.20
2020,04,15,13,16,16.20
2020,04,15,13,17,16.30
2020,04,15,13,18,16.30
2020,04,15,13,19,16.20
2020,04,15,13,20,16.20
2020,04,15,13,21,16.20
2020,04,15,13,22,16.20
2020,04,15,13,23,16.30
2020,04,15,13,24,16.30
2020,04,15,13,25,16.40
2020,04,15,13,26,16.40
2020,04,15,13,27,16.50
2020,04,15,13,28,16.50
2020,04,15,13,29,16.50
2020,04,15,13,30,16.50
2020,04,15,13,31,16.60
2020,04,15,13,32,16.60
2020,04,15,13,33,16.60
2020,04,15,13,34,16.70
2020,04,15,13,35,16.70
2020,04,15,13,36,16.70
2020,04,15,13,37,16.80
2020,04,15,13,38,16.80
2020,04,15,13,39,16.80
2020,04,15,13,40,16.80
2020,04,15,13,41,16.70
2020,04,15,13,42,16.80
2020,04,15,13,43,16.70
2020,04,15,13,44,16.70
2020,04,15,13,45,16.70
2020,04,15,13,46,16.70
2020,04,15,13,47,16.70
2020,04,15,13,48,16.70
2020,04,15,13,49,16.70
2020,04,15,13,50,16.70
2020,04,15,13,51,16.80
2020,04,15,13,52,16.80
2020,04,15,13,53,16.80
2020,04,15,13,54,16.80
2020,04,15,13,55,16.80
2020,04,15,13,56,16.70
2020,04,15,13,57,16.70
2020,04,15,13,58,16.60
2020,04,15,13,59,16.60
2020,04,15,14,00,16.60
2020,04,15,14,01,16.60
2020,04,15,14,02,16.70
2020,04,15,14,03,16.70
2020,04,15,14,04,16.80
2020,04,15,14,05,16.80
2020,04,15,14,06,16.80
2020,04,15,14,07,16.80
2020,04,15,14,08,16.80
2020,04,15,14,09,16.90
2020,04,15,14,10,16.90
2020,04,15,14,11,17.00
2020,04,15,14,12,17.10
2020,04,15,14,13,17.10
2020,04,15,14,14,17.10
2020,04,15,14,15,17.20
2020,04,15,14,16,17.20
2020,04,15,14,17,17.30
2020,04,15,14,18,17.40
2020,04,15,14,19,17.40
2020,04,15,14,20,17.50
2020,04,15,14,21,17.60
2020,04,15,14,22,17.60
2020,04,15,14,23,17.70
2020,04,15,14,24,17.60
2020,04,15,14,25,17.60
2020,04,15,14,26,17.60
2020,04,15,14,27,17.50
2020,04,15,14,28,17.50
2020,04,15,14,29,17.40
2020,04,15,14,30,17.40
2020,04,15,14,31,17.30
2020,04,15,14,32,17.30
2020,04,15,14,33,17.30
2020,04,15,14,34,17.20
2020,04,15,14,35,17.10
2020,04,15,14,36,17.10
2020,04,15,14,37,17.00
2020,04,15,14,38,17.00
2020,04,15,14,39,16.90
2020,04,15,14,40,16.90
2020,04,15,14,41,16.90
2020,04,15,14,42,16.80
2020,04,15,14,43,16.80
2020,04,15,14,44,16.90
2020,04,15,14,45,16.90
2020,04,15,14,46,17.00
2020,04,15,14,47,17.00
2020,04,15,14,48,17.10
2020,04,15,14,49,17.10
2020,04,15,14,50,17.10
2020,04,15,14,51,17.10
2020,04,15,14,52,17.10
2020,04,15,14,53,17.10
2020,04,15,14,54,17.10
2020,04,15,14,55,17.10
2020,04,15,14,56,17.10
2020,04,15,14,57,17.10
2020,04,15,14,58,17.20
2020,04,15,14,59,17.10
2020,04,15,15,00,17.10
2020,04,15,15,01,17.10
2020,04,15,15,02,17.00
2020,04,15,15,03,17.10
2020,04,15,15,04,17.10
2020,04,15,15,05,17.10
2020,04,15,15,06,17.20
2020,04,15,15,07,17.30
2020,04,15,15,08,17.40
2020,04,15,15,09,17.50
2020,04,15,15,10,17.60
2020,04,15,15,11,17.60
2020,04,15,15,12,17.70
2020,04,15,15,13,17.70
2020,04,15,15,14,17.80
2020,04,15,15,15,17.80
2020,04,15,15,16,17.80
2020,04,15,15,17,17.80
2020,04,15,15,18,17.80
2020,04,15,15,19,17.60
2020,04,15,15,20,17.50
2020,04,15,15,21,17.40
2020,04,15,15,22,17.30
2020,04,15,15,23,17.30
2020,04,15,15,24,17.20
2020,04,15,15,25,17.20
2020,04,15,15,26,17.10
2020,04,15,15,27,17.00
2020,04,15,15,28,16.90
2020,04,15,15,29,16.90
2020,04,15,15,30,16.90
2020,04,15,15,31,16.90
2020,04,15,15,32,16.90
2020,04,15,15,33,16.90
2020,04,15,15,34,16.90
2020,04,15,15,35,16.90
2020,04,15,15,36,16.90
2020,04,15,15,37,17.00
2020,04,15,15,38,17.00
2020,04,15,15,39,17.10
2020,04,15,15,40,17.10
2020,04,15,15,41,17.10
2020,04,15,15,42,17.20
2020,04,15,15,43,17.30
2020,04,15,15,44,17.30
2020,04,15,15,45,17.30
2020,04,15,15,46,17.40
2020,04,15,15,47,17.40
2020,04,15,15,48,17.50
2020,04,15,15,49,17.60
2020,04,15,15,50,17.60
2020,04,15,15,51,17.70
2020,04,15,15,52,17.70
2020,04,15,15,53,17.70
2020,04,15,15,54,17.60
2020,04,15,15,55,17.50
2020,04,15,15,56,17.40
2020,04,15,15,57,17.30
2020,04,15,15,58,17.20
2020,04,15,15,59,17.10
2020,04,15,16,00,17.10
2020,04,15,16,01,17.10
2020,04,15,16,02,17.20
2020,04,15,16,03,17.20
2020,04,15,16,04,17.10
2020,04,15,16,05,17.20
2020,04,15,16,06,17.20
2020,04,15,16,07,17.20
2020,04,15,16,08,17.30
2020,04,15,16,09,17.30
2020,04,15,16,10,17.40
2020,04,15,16,11,17.50
2020,04,15,16,12,17.60
2020,04,15,16,13,17.70
2020,04,15,16,14,17.70
2020,04,15,16,15,17.70
2020,04,15,16,16,17.70
2020,04,15,16,17,17.70
2020,04,15,16,18,17.70
2020,04,15,16,19,17.70
2020,04,15,16,20,17.70
2020,04,15,16,21,17.60
2020,04,15,16,22,17.60
2020,04,15,16,23,17.60
2020,04,15,16,24,17.60
2020,04,15,16,25,17.70
2020,04,15,16,26,17.70
2020,04,15,16,27,17.80
2020,04,15,16,28,17.80
2020,04,15,16,29,17.90
2020,04,15,16,30,17.90
2020,04,15,16,31,18.00
2020,04,15,16,32,18.00
2020,04,15,16,33,18.10
2020,04,15,16,34,18.10
2020,04,15,16,35,18.20
2020,04,15,16,36,18.20
2020,04,15,16,37,18.30
2020,04,15,16,38,18.30
2020,04,15,16,39,18.40
2020,04,15,16,40,18.50
2020,04,15,16,41,18.50
2020,04,15,16,42,18.60
2020,04,15,16,43,18.60
2020,04,15,16,44,18.70
2020,04,15,16,45,18.70
2020,04,15,16,46,18.70
2020,04,15,16,47,18.80
2020,04,15,16,48,18.80
2020,04,15,16,49,18.80
2020,04,15,16,50,18.90
2020,04,15,16,51,18.90
2020,04,15,16,52,18.90
2020,04,15,16,53,18.90
2020,04,15,16,54,18.90
2020,04,15,16,55,18.90
2020,04,15,16,56,18.90
2020,04,15,16,57,19.00
2020,04,15,16,58,19.10
2020,04,15,16,59,19.10
2020,04,15,17,00,19.10
2020,04,15,17,01,19.10
2020,04,15,17,02,19.10
2020,04,15,17,03,19.10
2020,04,15,17,04,19.10
2020,04,15,17,05,19.10
2020,04,15,17,06,19.00
2020,04,15,17,07,19.00
2020,04,15,17,08,19.00
2020,04,15,17,09,18.90
2020,04,15,17,10,18.80
2020,04,15,17,11,18.80
2020,04,15,17,12,18.70
2020,04,15,17,13,18.70
2020,04,15,17,14,18.60
2020,04,15,17,15,18.60
2020,04,15,17,16,18.60
2020,04,15,17,17,18.60
2020,04,15,17,18,18.60
2020,04,15,17,19,18.60
2020,04,15,17,20,18.70
2020,04,15,17,21,18.80
2020,04,15,17,22,18.90
2020,04,15,17,23,19.00
2020,04,15,17,24,19.00
2020,04,15,17,25,19.10
2020,04,15,17,26,19.10
2020,04,15,17,27,19.10